Regional Weather Roundup
Issued by NWS

Home | Current Version | Previous Version | Text Only | Print | Product List | Glossary On
Versions: 1 2 3 4 5 6 7 8 9 10 11 12 13 14 15 16 17 18 19 20 21 22 23 24 25 26 27 28 29 30 31 32 33 34 35 36 37 38 39 40
000
ASUS44 KBMX 260510
RWRAL

ALABAMA REGIONAL WEATHER ROUNDUP
NATIONAL WEATHER SERVICE BIRMINGHAM AL
1100 PM CST THU DEC 25 2014

NOTE: "FAIR" INDICATES FEW OR NO CLOUDS BELOW 12,000 FEET
WITH NO SIGNIFICANT WEATHER AND/OR OBSTRUCTIONS TO VISIBILITY.

THE REMARK "TC" DENOTES TEMPERATURE IN DEGREES CELSIUS.

ALZ001>011-014-016>018-020-260600-
NORTH ALABAMA

CITY           SKY/WX    TMP DP  RH WIND       PRES   REMARKS
MUSCLE SHOALS  PTCLDY    37  33  85 CALM      30.22R
HUNTSVILLE     PTCLDY    37  34  89 E7        30.22S WCI  32
DECATUR        CLEAR     37  34  89 E6        30.22F WCI  32
HALEYVILLE     FAIR      39  35  85 CALM      30.22S
GADSDEN        CLEAR     32  28  86 CALM      30.25S
$$

ALZ012-013-022-023-030>036-040>044-260600-
WEST CENTRAL ALABAMA

CITY           SKY/WX    TMP DP  RH WIND       PRES   REMARKS
TUSCALOOSA     PTCLDY    36  34  92 CALM      30.23F
$$

ALZ015-024>027-033>036-040>044-260600-
CENTRAL ALABAMA

CITY           SKY/WX    TMP DP  RH WIND       PRES   REMARKS
BIRMINGHAM     CLEAR     38  34  85 E5        30.24F WCI  34
MONTGOMERY     CLEAR     37  34  89 CALM      30.26S
SHELBY CO ARPT PTCLDY    38  36  92 CALM      30.24F
MAXWELL AFB    CLEAR     37  37 100 N1        30.25S FOG
GREENVILLE     FAIR      33  31  92 CALM      30.24S
$$

ALZ019-021-028-029-037-038-045>048-260600-
EAST CENTRAL ALABAMA

CITY           SKY/WX    TMP DP  RH WIND       PRES   REMARKS
ANNISTON       PTCLDY    35  33  92 CALM      30.26R
ALEXANDER CITY CLEAR     34  31  87 CALM      30.24F
AUBURN         CLEAR     36  30  80 CALM      30.26F
$$

ALZ051>064-260600-
SOUTHWEST ALABAMA

CITY           SKY/WX    TMP DP  RH WIND       PRES   REMARKS
MOBILE         FAIR      40  38  93 CALM      30.23F
BROOKLEY FIELD CLEAR     40  38  93 CALM      30.25F
EVERGREEN      CLEAR     36  33  89 CALM      30.25S
$$

ALZ049-050-065>069-260600-
SOUTHEAST ALABAMA

CITY           SKY/WX    TMP DP  RH WIND       PRES   REMARKS
DOTHAN         CLEAR     41  39  93 CALM      30.28F
OZARK          CLEAR     39  37  89 N2        30.25S
TROY           CLEAR     34  31  88 CALM      30.26S
EUFAULA        FAIR      34  31  88 CALM      30.25F
$$


USA.gov is the U.S. government's official web portal to all federal, state and local government web resources and services.